Tracking 35237 objects as of 5-Sep-2026
HD Live streaming from Space Station
objects crossing your sky now

SALYUT 7 DEB


SALYUT 7 DEB is no longer on orbit


NORAD ID: 15316
Int'l Code: 1982-033EC
Launch date: April 19, 1982
Source: Commonwealth of Independent States (former USSR) (CIS)
Launch site: TYURATAM MISSILE AND SPACE COMPLEX (TTMTR)
Decay date: 1985-02-11

Note: This is SATELLITE DEBRIS
Your satellite tracking list
Your tracking list is empty




NASA's NSSDC Master Catalog

Two Line Element Set (TLE):
1 15316U 82033 EC 85041.72386933  .07138135 +54651-4 +10626-2 0  9991
2 15316 051.6176 219.3820 0009169 227.7637 132.6551 16.33475333162604
Source of the keplerian elements: AFSPC